Wind_Speed
6 6 4 4 4 4 3 0 1 4 5 7 9 11 11 10 10 10 9 9 9 8 7 6 7 8 8 8 7 7 8 7 7 7 7 7 6 6 7 6 6 5 5 6 6 6 6 6 6
7 6 5 5 4 3 2 1 1 4 7 8 10 11 11 10 10 9 9 9 9 8 8 7 9 9 8 8 8 8 8 8 8 8 8 7 7 7 7 8 7 7 7 7 7 7 7 7 7
7 7 6 5 5 4 3 1 3 5 6 8 10 12 12 10 10 9 9 9 9 9 8 9 9 10 9 9 9 8 9 9 9 9 9 8 8 8 8 9 8 8 8 8 8 8 7 7 6
8 8 7 6 6 4 3 3 3 5 7 9 11 12 12 11 10 10 9 10 9 10 10 10 9 9 9 9 9 9 9 9 10 10 10 10 9 9 9 9 9 10 10 9 9 9 8 8 7
10 9 8 6 5 3 4 4 5 6 7 10 11 13 13 12 11 10 10 10 11 11 12 12 11 10 10 10 10 10 10 10 10 10 11 11 10 10 10 10 10 10 10 10 10 10 10 9 8
10 10 9 7 5 5 4 3 5 8 7 11 13 14 14 12 12 11 11 12 12 12 13 13 12 11 11 11 11 10 10 10 10 10 11 11 11 11 11 11 10 10 10 10 10 10 10 10 9
11 10 9 8 7 6 5 5 6 7 8 10 12 15 14 13 13 13 12 12 13 13 13 12 12 11 11 11 11 10 10 10 10 11 11 12 12 12 12 12 11 11 11 11 11 11 10 10 10
10 9 9 9 8 7 7 7 8 9 9 10 12 14 15 14 13 13 13 13 13 13 13 12 11 11 11 11 11 11 11 11 11 12 12 12 12 12 12 12 12 11 12 12 12 11 10 10 11
11 9 9 9 9 8 8 8 9 11 11 12 12 13 15 15 14 14 14 13 12 13 13 12 12 12 11 11 11 11 11 11 11 12 12 12 12 13 13 12 12 11 11 11 11 11 10 10 10
11 9 9 9 10 11 11 9 10 12 12 12 13 13 14 15 15 14 13 13 13 13 14 14 14 12 11 11 11 11 11 12 12 12 13 13 13 13 13 13 12 11 11 11 12 11 10 10 10
12 11 11 11 11 11 11 10 11 12 14 12 12 13 14 16 16 15 13 14 13 13 14 14 14 13 12 11 11 11 11 12 11 12 12 12 12 12 12 12 12 12 12 12 13 12 11 11 10
13 12 13 13 13 12 12 12 12 12 13 13 14 16 16 16 17 15 14 13 13 13 13 13 14 13 12 11 11 11 11 11 11 11 12 11 11 11 12 12 12 13 13 13 13 12 12 11 11
14 13 14 14 13 12 13 12 12 13 13 13 14 15 15 15 15 15 14 14 14 14 13 13 13 13 12 11 11 11 11 10 11 11 11 11 11 12 12 12 12 13 13 13 14 13 12 11 10
13 13 13 13 11 12 13 12 12 12 12 13 14 15 15 15 13 14 13 12 13 14 13 12 12 12 11 10 10 10 10 10 11 11 11 12 12 12 13 12 13 13 14 14 14 14 12 12 11
13 13 13 12 11 11 12 12 13 13 13 14 15 16 17 15 14 14 13 13 13 14 13 12 11 11 11 10 10 9 9 10 11 11 11 12 12 12 13 13 13 14 15 14 14 13 13 12 12
14 14 13 12 11 11 13 14 14 14 15 15 15 16 16 16 15 14 14 14 14 15 14 12 11 11 11 10 9 9 9 9 10 11 11 11 11 11 12 13 13 13 13 13 13 13 13 13 13
15 14 13 12 12 12 14 15 14 15 16 16 16 16 16 16 15 15 15 14 14 14 13 13 13 12 11 11 10 9 10 10 11 11 10 10 10 11 11 11 12 12 12 12 12 12 13 14 14
14 13 12 12 13 14 16 16 15 16 17 18 17 17 17 16 15 16 15 14 14 14 13 13 13 12 12 11 10 10 11 11 11 10 9 9 9 10 10 11 11 11 12 12 11 13 13 14 14
15 14 14 14 15 16 17 17 16 16 17 18 17 16 17 18 17 16 16 16 15 14 13 12 11 12 11 11 9 10 10 10 10 9 8 8 8 9 10 11 12 12 12 12 12 12 13 14 14
16 15 15 15 17 19 18 18 17 17 17 16 16 17 17 16 16 16 16 16 14 13 13 13 12 12 12 10 10 10 9 9 9 9 9 8 8 9 10 10 11 11 12 12 12 12 14 14 14
16 16 16 17 18 20 21 20 17 17 17 16 16 17 17 18 17 16 16 15 13 12 12 13 11 11 11 10 9 9 9 8 8 8 8 8 8 9 9 10 10 11 10 11 12 12 13 13 14
18 16 17 18 19 20 21 21 18 18 17 16 16 15 16 17 17 16 16 15 13 12 12 11 10 10 10 10 9 8 8 7 6 7 8 8 9 9 9 10 10 11 11 11 12 12 13 14 14
16 16 18 19 19 20 20 21 18 17 16 16 15 14 15 16 15 15 14 13 13 13 12 11 9 10 10 10 9 8 8 7 6 7 8 9 9 9 10 10 10 10 10 11 12 13 13 14 14
16 16 17 18 19 19 19 20 18 16 15 16 14 13 14 14 13 13 13 12 13 13 12 11 9 9 9 9 9 8 8 8 7 7 7 8 7 8 9 10 10 10 9 10 11 11 12 12 12
17 18 19 19 18 18 17 18 17 14 15 15 14 13 13 13 12 13 13 12 13 13 12 11 9 9 8 9 9 8 8 8 7 7 7 8 7 8 8 8 9 9 10 10 11 12 12 12 12
17 18 18 19 19 18 17 18 16 13 13 14 14 13 13 13 13 12 12 12 11 11 10 9 9 10 9 9 9 8 8 7 7 7 7 8 8 8 7 8 8 9 10 11 12 12 12 13 13
17 18 18 18 17 17 17 17 15 14 13 14 14 14 14 14 13 12 12 12 11 10 9 9 9 9 9 9 8 8 8 7 7 7 7 7 7 7 7 7 7 8 9 10 11 11 11 12 12
19 17 17 18 18 18 17 16 14 13 13 14 14 13 13 13 13 13 13 12 11 9 9 9 8 8 8 8 8 7 8 8 8 8 8 8 7 7 7 7 7 8 8 9 9 10 10 11 11
18 19 18 19 20 20 19 16 15 15 15 15 14 13 14 14 13 13 12 11 10 8 7 8 8 8 8 7 7 8 8 8 7 8 9 8 8 8 8 8 8 9 9 10 10 10 11 11 11
19 19 19 19 19 20 20 18 15 15 15 15 15 14 14 14 13 12 12 11 10 9 8 8 9 8 8 7 7 8 8 8 8 8 8 8 8 9 9 8 8 9 10 10 11 11 11 11 12
Wind_Direction
182 175 175 170 167 153 164 225 8 350 339 338 331 328 327 333 335 334 332 327 328 333 331 322 316 313 310 305 294 289 286 283 278 276 275 273 270 268 267 264 259 251 249 251 248 236 232 236 231
192 189 185 180 184 188 215 214 331 325 329 327 324 322 323 326 329 329 323 325 330 330 327 323 313 311 307 300 291 287 284 278 274 272 271 270 267 262 261 261 262 257 250 251 255 245 240 244 241
205 200 196 197 202 216 222 237 310 314 319 320 324 320 319 319 322 325 323 323 325 323 323 322 313 311 306 302 294 287 284 281 274 269 268 268 267 264 262 261 263 261 255 251 251 247 245 245 248
211 207 208 213 212 213 248 297 314 298 305 319 323 318 319 319 321 323 325 324 321 318 314 312 310 310 306 302 297 290 285 284 277 271 268 265 266 266 263 259 259 259 256 251 246 247 247 251 255
218 212 212 215 213 228 270 298 322 297 305 313 319 317 317 319 318 318 322 322 319 316 313 311 305 305 302 299 295 288 285 283 277 272 271 266 266 265 262 260 259 256 254 250 247 247 246 249 252
221 221 222 220 233 233 261 300 310 296 301 311 316 316 317 318 316 316 319 321 318 316 313 311 306 301 299 299 298 291 284 282 275 272 271 268 265 262 260 260 261 257 251 248 245 245 246 249 251
225 225 222 224 234 240 265 284 290 287 301 312 314 313 313 314 314 316 320 318 316 313 308 306 304 303 304 302 297 294 284 281 277 275 273 270 268 262 257 258 262 261 254 248 245 243 244 245 250
223 220 224 225 234 251 269 283 286 293 299 301 307 309 313 312 314 316 318 316 317 317 312 304 304 303 301 299 297 294 287 283 279 277 275 274 272 266 261 259 260 258 254 250 244 241 242 245 248
228 226 228 229 241 252 265 274 286 297 299 298 302 305 309 310 314 315 314 313 316 315 312 300 300 299 298 297 296 296 288 282 278 277 276 274 271 266 263 261 260 258 253 245 240 241 244 248 248
230 228 230 236 248 256 265 275 291 293 294 294 297 302 305 307 309 309 309 311 312 313 309 303 302 299 297 296 295 294 290 284 279 276 276 273 270 265 261 258 257 257 255 248 244 241 244 247 248
235 227 229 238 250 260 268 276 284 285 288 290 295 301 304 307 307 307 306 306 307 310 309 304 303 303 299 295 293 292 291 286 281 277 277 272 267 260 256 257 256 254 251 249 246 245 246 248 250
233 233 237 243 253 261 266 270 276 285 288 289 292 294 298 304 307 306 303 303 304 308 310 307 303 302 301 295 288 284 286 284 282 279 277 268 263 258 254 256 255 252 251 250 247 246 248 249 249
234 237 243 246 252 262 270 275 282 290 286 286 294 295 297 303 306 302 299 302 303 305 306 305 302 300 300 295 287 280 278 281 283 278 273 266 263 258 254 253 249 249 254 253 250 251 251 255 251
233 238 244 249 256 265 273 281 286 290 291 289 297 299 296 299 304 303 301 303 306 307 304 303 301 301 301 297 289 284 280 282 283 278 270 267 261 256 255 254 252 252 256 253 251 250 252 250 248
233 234 238 245 255 266 272 277 284 289 292 298 302 299 293 293 298 301 302 304 305 309 307 301 301 300 298 292 289 286 285 282 281 279 273 266 256 256 259 257 254 257 257 253 249 246 247 246 242
232 234 235 244 256 265 273 279 283 287 290 293 298 295 293 297 297 294 297 299 301 302 303 305 303 301 299 294 285 287 288 286 284 280 273 264 255 260 259 256 255 257 255 249 247 245 246 245 238
235 238 242 247 258 267 272 276 279 284 288 290 294 296 293 294 296 295 295 295 298 300 300 305 306 299 295 294 292 289 289 286 285 280 272 263 258 257 257 255 253 253 253 251 249 244 244 243 239
240 244 248 254 261 266 269 275 278 281 284 285 290 295 293 293 296 295 293 294 296 296 298 301 302 294 287 289 297 293 293 285 282 279 274 269 260 254 255 253 251 251 250 252 251 246 242 244 243
243 247 248 253 260 266 270 274 276 278 282 285 289 295 297 294 296 296 292 291 292 295 297 297 299 292 288 293 299 299 297 287 283 277 278 274 262 256 257 252 250 248 249 251 252 248 245 246 247
242 246 248 251 255 262 268 271 274 277 281 284 288 290 294 293 293 293 292 289 288 286 287 291 291 289 291 294 297 299 298 289 283 278 278 272 262 260 257 251 250 249 251 252 252 250 248 250 247
242 246 250 252 256 261 268 270 270 275 277 277 284 288 291 293 297 292 292 290 284 283 283 289 286 288 292 294 300 298 301 292 280 276 277 271 267 265 259 253 251 250 252 251 252 251 249 249 249
242 246 252 256 259 261 268 270 269 272 276 276 282 291 297 298 297 296 291 287 281 280 282 282 284 288 289 290 296 299 302 290 278 279 279 274 269 265 261 257 255 251 249 251 254 255 254 252 252
248 253 255 259 261 264 267 269 269 270 274 278 284 292 298 297 295 295 291 283 277 279 280 278 281 281 286 288 288 289 292 288 281 283 282 282 276 268 264 258 259 255 252 254 256 259 259 258 253
245 250 253 256 258 261 264 266 267 265 270 281 286 290 293 293 292 289 288 282 276 274 274 276 275 280 281 282 281 281 283 281 280 282 287 286 278 274 268 263 258 254 252 256 261 263 263 261 260
240 245 249 251 254 260 266 265 269 269 276 279 281 283 290 292 291 286 287 286 278 270 272 273 273 280 284 277 275 274 275 275 278 281 287 286 278 277 272 268 263 257 255 260 264 266 264 262 262
240 246 248 254 259 262 264 264 268 271 274 279 280 284 287 291 286 286 289 285 276 276 275 271 276 279 275 271 269 272 268 272 273 277 282 281 279 276 270 265 265 263 262 264 266 267 264 265 262
243 245 250 258 262 264 264 266 266 268 270 276 277 281 287 288 283 287 290 284 282 276 274 272 275 270 265 267 270 270 267 266 269 274 282 288 287 274 271 271 264 260 264 265 266 270 267 269 266
241 244 249 254 258 261 264 264 264 264 268 273 274 278 287 290 289 288 288 279 276 275 267 269 271 265 266 262 265 266 260 255 261 270 279 281 281 276 277 275 269 266 267 271 272 275 274 272 270
237 242 248 254 257 262 264 265 268 266 273 275 273 276 284 288 291 291 286 279 272 263 263 267 270 272 268 270 270 266 262 253 260 271 275 278 279 283 284 282 280 278 276 277 278 279 277 277 275
238 241 246 252 257 261 264 264 266 265 274 278 278 278 281 286 287 287 279 276 273 274 272 272 271 272 266 268 273 272 266 260 264 272 276 281 284 286 286 284 284 286 284 282 283 286 282 279 279
Height
5897 5897 5898 5899 5899 5898 5897 5896 5895 5895 5895 5895 5895 5895 5894 5894 5893 5894 5891 5888 5887 5886 5885 5884 5884 5884 5883 5882 5882 5882 5881 5881 5881 5881 5880 5880 5880 5880 5880 5879 5879 5879 5878 5878 5878 5877 5877 5877 5877
5896 5896 5897 5898 5897 5896 5896 5896 5895 5894 5895 5894 5894 5894 5893 5892 5892 5891 5889 5887 5886 5885 5884 5883 5883 5882 5881 5881 5881 5880 5880 5880 5880 5879 5879 5879 5879 5879 5878 5878 5878 5878 5877 5877 5877 5876 5876 5876 5876
5894 5895 5896 5896 5895 5896 5896 5895 5894 5894 5894 5894 5893 5892 5892 5891 5890 5889 5887 5886 5885 5884 5883 5882 5881 5881 5880 5879 5879 5879 5878 5878 5878 5878 5878 5877 5877 5877 5877 5877 5876 5876 5876 5876 5876 5876 5875 5875 5875
5894 5894 5895 5895 5894 5894 5893 5893 5893 5893 5892 5892 5891 5891 5890 5888 5888 5887 5885 5884 5883 5883 5882 5881 5880 5879 5879 5878 5877 5877 5876 5876 5876 5876 5876 5875 5875 5875 5875 5875 5875 5874 5874 5874 5874 5874 5874 5874 5874
5892 5893 5893 5893 5892 5892 5891 5891 5891 5891 5891 5891 5890 5889 5888 5887 5886 5885 5884 5883 5882 5881 5880 5879 5878 5877 5877 5876 5875 5875 5875 5874 5874 5874 5874 5873 5873 5873 5873 5873 5872 5872 5872 5872 5872 5872 5872 5873 5873
5891 5891 5892 5892 5891 5891 5890 5890 5890 5890 5890 5889 5888 5887 5886 5886 5885 5884 5882 5881 5880 5878 5878 5877 5876 5875 5874 5874 5873 5873 5872 5872 5872 5872 5872 5871 5871 5871 5871 5871 5870 5870 5870 5870 5870 5871 5871 5871 5871
5889 5889 5890 5890 5890 5889 5889 5889 5889 5889 5888 5887 5886 5886 5884 5884 5882 5881 5880 5879 5877 5876 5875 5875 5874 5873 5872 5871 5871 5870 5870 5870 5870 5869 5869 5869 5869 5868 5868 5868 5868 5868 5868 5868 5868 5869 5869 5869 5869
5886 5887 5887 5888 5888 5888 5888 5887 5887 5887 5886 5886 5885 5884 5882 5881 5880 5879 5878 5877 5875 5874 5873 5873 5872 5871 5870 5869 5869 5868 5868 5867 5867 5867 5866 5866 5866 5866 5866 5866 5866 5866 5866 5866 5866 5866 5867 5867 5868
5883 5886 5885 5886 5886 5887 5886 5885 5885 5885 5884 5884 5883 5882 5881 5879 5878 5877 5876 5875 5874 5872 5871 5870 5870 5868 5867 5867 5866 5865 5865 5865 5864 5864 5864 5863 5863 5863 5863 5863 5863 5863 5863 5863 5864 5864 5865 5865 5866
5881 5883 5884 5884 5884 5884 5884 5883 5883 5883 5882 5881 5881 5880 5878 5876 5875 5874 5874 5872 5872 5871 5870 5868 5867 5865 5865 5864 5863 5863 5863 5862 5862 5861 5861 5861 5860 5860 5861 5860 5861 5861 5861 5861 5861 5862 5862 5863 5864
5879 5881 5881 5881 5882 5881 5881 5881 5881 5880 5880 5879 5878 5877 5875 5873 5873 5872 5871 5869 5869 5868 5867 5865 5865 5863 5862 5861 5860 5860 5860 5859 5859 5858 5858 5857 5857 5857 5858 5858 5858 5858 5859 5859 5859 5859 5860 5860 5861
5877 5878 5878 5878 5879 5879 5879 5879 5879 5878 5878 5877 5875 5873 5872 5871 5870 5869 5868 5867 5866 5865 5864 5863 5862 5861 5859 5858 5858 5857 5857 5856 5856 5855 5855 5854 5855 5855 5855 5856 5855 5855 5856 5856 5856 5857 5857 5858 5858
5874 5875 5875 5876 5876 5877 5876 5876 5876 5876 5875 5874 5872 5871 5869 5868 5867 5866 5865 5864 5863 5863 5862 5860 5859 5858 5856 5856 5855 5854 5854 5853 5852 5852 5852 5851 5852 5852 5852 5853 5853 5853 5853 5853 5854 5854 5855 5855 5856
5871 5872 5873 5873 5873 5874 5874 5873 5873 5873 5872 5872 5870 5869 5867 5865 5864 5863 5861 5861 5860 5859 5858 5858 5856 5855 5854 5853 5852 5851 5851 5850 5849 5849 5849 5849 5849 5849 5849 5850 5850 5850 5850 5850 5851 5851 5852 5852 5853
5868 5869 5870 5870 5871 5871 5871 5871 5870 5870 5869 5869 5867 5865 5863 5861 5861 5860 5858 5858 5857 5856 5855 5854 5853 5852 5851 5850 5849 5849 5847 5847 5846 5845 5845 5845 5845 5846 5846 5846 5846 5846 5846 5847 5847 5848 5848 5849 5850
5865 5866 5867 5868 5868 5868 5869 5868 5868 5867 5866 5865 5863 5861 5860 5858 5857 5856 5855 5855 5854 5853 5852 5850 5849 5848 5847 5846 5846 5845 5844 5843 5842 5842 5841 5841 5841 5842 5842 5843 5843 5843 5843 5843 5844 5844 5845 5846 5847
5861 5863 5864 5866 5865 5865 5865 5865 5865 5864 5863 5861 5860 5858 5857 5855 5854 5853 5852 5851 5850 5849 5848 5846 5846 5845 5844 5844 5843 5842 5841 5840 5839 5839 5838 5838 5839 5839 5839 5839 5839 5840 5840 5840 5841 5841 5842 5843 5843
5858 5859 5860 5861 5861 5861 5861 5861 5861 5860 5859 5858 5857 5855 5853 5852 5851 5850 5849 5848 5846 5845 5845 5843 5842 5842 5841 5840 5839 5838 5837 5837 5836 5835 5835 5835 5836 5836 5836 5836 5837 5837 5837 5838 5838 5839 5839 5840 5840
5854 5854 5855 5857 5857 5857 5857 5857 5856 5855 5855 5854 5853 5851 5849 5847 5846 5846 5845 5844 5843 5842 5841 5839 5838 5838 5838 5836 5835 5835 5834 5834 5833 5833 5833 5833 5833 5833 5833 5834 5834 5834 5834 5835 5835 5836 5836 5837 5837
5849 5850 5851 5853 5853 5852 5852 5852 5852 5851 5851 5850 5849 5847 5846 5844 5843 5842 5841 5840 5839 5838 5838 5837 5836 5836 5835 5834 5834 5833 5832 5831 5830 5830 5830 5830 5830 5830 5831 5831 5831 5831 5831 5832 5832 5833 5833 5833 5834
5845 5846 5847 5848 5849 5847 5847 5847 5847 5847 5846 5846 5845 5843 5842 5840 5839 5838 5837 5836 5835 5835 5835 5834 5833 5833 5832 5831 5831 5830 5829 5828 5828 5828 5828 5828 5827 5828 5828 5828 5828 5828 5828 5829 5829 5830 5830 5830 5830
5841 5842 5843 5843 5843 5843 5843 5842 5843 5843 5842 5841 5840 5839 5837 5836 5834 5834 5833 5832 5832 5831 5831 5830 5830 5830 5829 5829 5828 5828 5827 5826 5826 5826 5826 5825 5825 5825 5824 5825 5825 5825 5825 5825 5826 5826 5827 5827 5827
5836 5838 5838 5838 5838 5838 5838 5837 5838 5838 5837 5836 5836 5835 5833 5832 5831 5830 5829 5829 5828 5828 5827 5827 5826 5827 5826 5826 5826 5826 5825 5824 5824 5824 5823 5823 5822 5822 5822 5822 5822 5822 5822 5822 5822 5822 5823 5823 5823
5831 5833 5833 5833 5833 5833 5833 5832 5832 5833 5833 5832 5832 5831 5830 5828 5827 5826 5826 5826 5825 5825 5824 5824 5823 5824 5823 5823 5823 5823 5823 5822 5822 5822 5821 5821 5820 5819 5819 5818 5818 5818 5818 5819 5819 5819 5819 5819 5819
5826 5828 5828 5828 5827 5828 5828 5827 5827 5828 5828 5827 5827 5827 5826 5825 5823 5823 5823 5823 5822 5822 5821 5821 5821 5821 5821 5821 5821 5821 5820 5820 5820 5820 5819 5819 5818 5817 5816 5815 5815 5815 5815 5815 5816 5815 5815 5815 5815
5822 5823 5824 5824 5823 5823 5823 5822 5823 5823 5824 5824 5823 5823 5822 5821 5820 5820 5820 5819 5818 5819 5819 5819 5818 5818 5819 5819 5818 5818 5818 5818 5818 5817 5817 5816 5815 5814 5813 5813 5812 5812 5812 5812 5812 5812 5812 5811 5811
5817 5818 5820 5819 5819 5819 5818 5818 5819 5819 5819 5820 5820 5819 5818 5818 5817 5816 5816 5816 5815 5816 5816 5816 5816 5816 5816 5816 5816 5815 5816 5816 5816 5815 5815 5814 5813 5812 5811 5810 5810 5809 5809 5809 5809 5808 5808 5808 5807
5813 5814 5815 5814 5814 5814 5815 5815 5815 5815 5816 5816 5816 5815 5815 5814 5814 5813 5813 5813 5813 5813 5813 5813 5813 5813 5813 5813 5813 5813 5813 5813 5813 5813 5812 5812 5811 5810 5809 5808 5807 5807 5806 5806 5806 5805 5805 5804 5804
5808 5810 5810 5810 5810 5811 5811 5814 5813 5812 5812 5813 5812 5812 5812 5811 5811 5810 5809 5809 5810 5810 5811 5811 5810 5810 5810 5811 5811 5811 5810 5810 5810 5810 5809 5809 5808 5808 5807 5806 5805 5805 5804 5804 5803 5802 5802 5801 5801
5804 5805 5806 5806 5806 5806 5807 5811 5808 5809 5809 5809 5808 5808 5808 5808 5807 5807 5806 5806 5806 5807 5808 5808 5808 5808 5808 5809 5809 5808 5808 5808 5808 5807 5807 5806 5806 5805 5804 5804 5803 5802 5802 5801 5800 5799 5798 5798 5797